| time (UTC) | temp F | wind direction | speed knots | gust knots | rain 1hr in | rain 24hr in | rain mn in | humidity % | barometer mb |
| 20260506082000 | 58 | 302 | 0.0 | 0.0 | 0.00 | 0.06 | 0.00 | 62 | 1015.3 |
| 20260506081000 | 59 | 302 | 0.9 | 0.9 | 0.00 | 0.06 | 0.00 | 62 | 1015.4 |
| 20260506073001 | 60 | 321 | 0.9 | 2.6 | 0.00 | 0.13 | 0.00 | 60 | 1015.5 |
| 20260506072001 | 60 | 330 | 0.9 | 4.3 | 0.00 | 0.13 | 0.00 | 59 | 1015.4 |
| 20260506071000 | 60 | 251 | 0.9 | 5.2 | 0.00 | 0.13 | 0.00 | 58 | 1015.2 |
| 20260506062000 | 61 | 296 | 0.0 | 0.9 | 0.00 | 0.21 | 0.13 | 57 | 1015.0 |
| 20260506061001 | 61 | 285 | 0.0 | 0.0 | 0.00 | 0.21 | 0.13 | 55 | 1015.1 |
| 20260506051001 | 64 | 316 | 2.6 | 6.1 | 0.00 | 0.26 | 0.13 | 49 | 1014.6 |
| 20260506045000 | 64 | 333 | 2.6 | 5.2 | 0.00 | 0.29 | 0.13 | 50 | 1014.4 |
| 20260506044000 | 65 | 327 | 4.3 | 9.6 | 0.00 | 0.29 | 0.13 | 48 | 1014.3 |
| 20260506043001 | 65 | 296 | 5.2 | 11.3 | 0.00 | 0.29 | 0.13 | 47 | 1014.1 |
| 20260506042001 | 65 | 284 | 3.5 | 9.6 | 0.00 | 0.29 | 0.13 | 47 | 1014.1 |
| 20260506041001 | 66 | 259 | 2.6 | 9.6 | 0.00 | 0.29 | 0.13 | 47 | 1014.0 |
| 20260506040003 | 66 | 274 | 3.5 | 8.7 | 0.00 | 0.29 | 0.13 | 46 | 1013.8 |
| 20260506035002 | 66 | 289 | 5.2 | 11.3 | 0.00 | 0.29 | 0.13 | 45 | 1013.6 |
| 20260506034002 | 66 | 275 | 6.1 | 13.0 | 0.00 | 0.29 | 0.13 | 45 | 1013.5 |
| 20260506033002 | 67 | 298 | 5.2 | 11.3 | 0.00 | 0.29 | 0.13 | 44 | 1013.3 |
| 20260506032002 | 67 | 271 | 4.3 | 12.2 | 0.00 | 0.29 | 0.13 | 42 | 1013.1 |
| 20260506031002 | 67 | 302 | 4.3 | 9.6 | 0.00 | 0.29 | 0.13 | 37 | 1013.0 |
| 20260506030001 | 68 | 302 | 4.3 | 7.8 | 0.00 | 0.31 | 0.13 | 35 | 1012.8 |
| 20260506025000 | 68 | 298 | 4.3 | 9.6 | 0.00 | 0.31 | 0.13 | 35 | 1012.6 |
| 20260506024002 | 68 | 290 | 5.2 | 12.2 | 0.00 | 0.31 | 0.13 | 33 | 1012.5 |
| 20260506023000 | 68 | 322 | 5.2 | 13.0 | 0.00 | 0.31 | 0.13 | 32 | 1012.3 |
| 20260506022001 | 69 | 289 | 6.1 | 13.0 | 0.00 | 0.31 | 0.13 | 32 | 1012.1 |
| 20260506021000 | 69 | 301 | 6.1 | 13.9 | 0.00 | 0.31 | 0.13 | 32 | 1011.9 |
| 20260506020001 | 69 | 310 | 6.1 | 10.4 | 0.00 | 0.32 | 0.13 | 30 | 1011.7 |
| 20260506015000 | 69 | 307 | 7.0 | 15.6 | 0.00 | 0.32 | 0.13 | 31 | 1011.6 |
| 20260506014002 | 70 | 315 | 7.8 | 18.2 | 0.00 | 0.32 | 0.13 | 32 | 1011.6 |
| 20260506013000 | 71 | 289 | 7.8 | 20.0 | 0.00 | 0.32 | 0.13 | 32 | 1011.5 |
| 20260506012000 | 70 | 304 | 7.8 | 14.8 | 0.00 | 0.32 | 0.13 | 32 | 1011.4 |
| 20260506011000 | 70 | 309 | 7.0 | 15.6 | 0.00 | 0.32 | 0.13 | 32 | 1011.5 |
| 20260506010004 | 71 | 248 | 5.2 | 12.2 | 0.00 | 0.32 | 0.13 | 32 | 1011.3 |
| 20260506005000 | 72 | 281 | 5.2 | 16.5 | 0.00 | 0.33 | 0.13 | 31 | 1011.3 |
| 20260506004002 | 72 | 298 | 6.1 | 16.5 | 0.00 | 0.33 | 0.13 | 29 | 1011.1 |
| 20260506003001 | 72 | 285 | 6.1 | 16.5 | 0.00 | 0.33 | 0.13 | 27 | 1011.1 |
| 20260506002000 | 73 | 274 | 4.3 | 12.2 | 0.00 | 0.33 | 0.13 | 27 | 1011.0 |
| 20260506001000 | 74 | 302 | 6.1 | 16.5 | 0.00 | 0.33 | 0.13 | 27 | 1011.1 |
| 20260506000003 | 74 | 304 | 6.1 | 13.0 | 0.00 | 0.33 | 0.13 | 27 | 1010.9 |
| 20260505235000 | 73 | 293 | 5.2 | 14.8 | 0.00 | 0.33 | 0.13 | 28 | 1010.9 |
| 20260505234000 | 73 | 293 | 7.8 | 16.5 | 0.00 | 0.33 | 0.13 | 28 | 1010.7 |
| 20260505233002 | 74 | 294 | 7.0 | 20.9 | 0.00 | 0.33 | 0.13 | 28 | 1010.7 |
| 20260505232000 | 74 | 299 | 5.2 | 10.4 | 0.00 | 0.33 | 0.13 | 28 | 1010.6 |
| 20260505231000 | 74 | 302 | 4.3 | 11.3 | 0.00 | 0.33 | 0.13 | 28 | 1010.7 |
| 20260505230004 | 75 | 266 | 3.5 | 13.9 | 0.00 | 0.33 | 0.13 | 28 | 1010.7 |
| 20260505225000 | 74 | 264 | 4.3 | 17.4 | 0.00 | 0.33 | 0.13 | 29 | 1010.9 |
| 20260505224000 | 74 | 271 | 1.7 | 7.0 | 0.00 | 0.33 | 0.13 | 29 | 1010.8 |
| 20260505223000 | 74 | 295 | 5.2 | 15.6 | 0.00 | 0.33 | 0.13 | 29 | 1011.0 |
| 20260505222001 | 75 | 223 | 5.2 | 13.9 | 0.00 | 0.33 | 0.13 | 28 | 1011.1 |
| 20260505221000 | 75 | 227 | 4.3 | 11.3 | 0.00 | 0.33 | 0.13 | 27 | 1011.2 |
| 20260505220003 | 74 | 250 | 6.1 | 15.6 | 0.00 | 0.33 | 0.13 | 28 | 1011.2 |
| 20260505215000 | 76 | 229 | 5.2 | 14.8 | 0.00 | 0.33 | 0.13 | 27 | 1011.4 |
| 20260505214000 | 75 | 289 | 6.1 | 16.5 | 0.00 | 0.33 | 0.13 | 29 | 1011.7 |
| 20260505213001 | 75 | 247 | 5.2 | 13.9 | 0.00 | 0.33 | 0.13 | 28 | 1011.7 |
| 20260505212000 | 75 | 174 | 5.2 | 12.2 | 0.00 | 0.33 | 0.13 | 31 | 1011.8 |
| 20260505211001 | 75 | 214 | 5.2 | 13.9 | 0.00 | 0.33 | 0.13 | 31 | 1011.8 |
| 20260505210003 | 74 | 297 | 7.8 | 23.5 | 0.00 | 0.33 | 0.13 | 30 | 1011.9 |
| 20260505205000 | 74 | 298 | 7.8 | 24.3 | 0.00 | 0.33 | 0.13 | 30 | 1011.8 |
| 20260505204001 | 74 | 277 | 7.0 | 18.2 | 0.00 | 0.33 | 0.13 | 31 | 1011.9 |
| 20260505203001 | 74 | 246 | 8.7 | 17.4 | 0.00 | 0.33 | 0.13 | 32 | 1011.9 |
| 20260505202000 | 74 | 219 | 7.0 | 13.9 | 0.00 | 0.33 | 0.13 | 31 | 1011.9 |
| 20260505201001 | 74 | 252 | 7.8 | 17.4 | 0.00 | 0.33 | 0.13 | 32 | 1012.1 |
| 20260505200003 | 74 | 290 | 7.0 | 21.7 | 0.00 | 0.33 | 0.13 | 34 | 1012.0 |
| 20260505195000 | 73 | 262 | 7.8 | 23.5 | 0.00 | 0.33 | 0.13 | 36 | 1012.1 |
| 20260505194001 | 74 | 219 | 6.1 | 14.8 | 0.00 | 0.33 | 0.13 | 37 | 1012.2 |
| 20260505193001 | 73 | 298 | 5.2 | 14.8 | 0.00 | 0.33 | 0.13 | 39 | 1012.3 |
| 20260505192002 | 74 | 284 | 6.1 | 15.6 | 0.00 | 0.33 | 0.13 | 41 | 1012.2 |
| 20260505191000 | 74 | 309 | 4.3 | 12.2 | 0.00 | 0.33 | 0.13 | 43 | 1012.5 |
| 20260505190001 | 73 | 255 | 5.2 | 12.2 | 0.00 | 0.33 | 0.13 | 42 | 1012.6 |
| 20260505185000 | 72 | 309 | 5.2 | 13.0 | 0.00 | 0.33 | 0.13 | 45 | 1012.6 |
| 20260505184001 | 70 | 290 | 3.5 | 9.6 | 0.00 | 0.33 | 0.13 | 50 | 1012.9 |
| 20260505183000 | 70 | 278 | 2.6 | 8.7 | 0.00 | 0.33 | 0.13 | 52 | 1013.1 |
| 20260505182000 | 70 | 117 | 1.7 | 5.2 | 0.00 | 0.33 | 0.13 | 52 | 1013.1 |
| 20260505181000 | 68 | 160 | 1.7 | 6.1 | 0.00 | 0.33 | 0.13 | 55 | 1013.3 |
| 20260505180002 | 67 | 107 | 1.7 | 3.5 | 0.00 | 0.33 | 0.13 | 57 | 1013.4 |
| 20260505175001 | 67 | 160 | 0.9 | 3.5 | 0.00 | 0.33 | 0.13 | 56 | 1013.6 |
| 20260505174000 | 67 | 169 | 0.9 | 2.6 | 0.00 | 0.33 | 0.13 | 58 | 1013.6 |
| 20260505173001 | 66 | 340 | 2.6 | 4.3 | 0.00 | 0.33 | 0.13 | 58 | 1013.7 |
| 20260505172001 | 67 | 309 | 2.6 | 5.2 | 0.00 | 0.33 | 0.13 | 58 | 1013.7 |
| 20260505171001 | 67 | 283 | 0.9 | 1.7 | 0.00 | 0.33 | 0.13 | 57 | 1013.7 |
| 20260505170002 | 66 | 295 | 0.9 | 2.6 | 0.00 | 0.33 | 0.13 | 59 | 1013.7 |
| 20260505165000 | 66 | 273 | 0.9 | 4.3 | 0.00 | 0.33 | 0.13 | 61 | 1013.6 |
| 20260505164001 | 65 | 301 | 0.9 | 4.3 | 0.00 | 0.33 | 0.13 | 61 | 1013.6 |
| 20260505163001 | 64 | 326 | 0.9 | 2.6 | 0.00 | 0.33 | 0.13 | 63 | 1013.6 |
| 20260505162000 | 64 | 333 | 1.7 | 3.5 | 0.00 | 0.33 | 0.13 | 66 | 1013.6 |
| 20260505161000 | 64 | 292 | 0.0 | 2.6 | 0.00 | 0.33 | 0.13 | 70 | 1013.7 |
| 20260505153001 | 62 | 301 | 0.9 | 2.6 | 0.00 | 0.33 | 0.13 | 75 | 1013.5 |
| 20260505152000 | 62 | 307 | 1.7 | 4.3 | 0.00 | 0.33 | 0.13 | 76 | 1013.5 |
| 20260505151001 | 61 | 294 | 1.7 | 6.1 | 0.00 | 0.33 | 0.13 | 82 | 1013.5 |
| 20260505124959 | 59 | 121 | 0.0 | 0.9 | 0.00 | 0.33 | 0.13 | 90 | 1012.5 |
| 20260505123959 | 59 | 120 | 0.9 | 1.7 | 0.00 | 0.33 | 0.13 | 90 | 1012.3 |
| 20260505122959 | 58 | 175 | 0.0 | 0.9 | 0.00 | 0.33 | 0.13 | 90 | 1012.5 |
| 20260505121959 | 58 | 201 | 0.0 | 0.9 | 0.00 | 0.33 | 0.13 | 90 | 1012.2 |
| 20260505120959 | 59 | 160 | 0.9 | 2.6 | 0.00 | 0.33 | 0.13 | 90 | 1012.4 |
| 20260505115959 | 59 | 158 | 0.9 | 2.6 | 0.01 | 0.33 | 0.13 | 90 | 1011.8 |
| 20260505114959 | 59 | 170 | 0.9 | 2.6 | 0.01 | 0.33 | 0.13 | 89 | 1012.2 |
| 20260505113958 | 59 | 144 | 1.7 | 2.6 | 0.01 | 0.33 | 0.13 | 90 | 1012.0 |
| 20260505112958 | 59 | 131 | 0.9 | 2.6 | 0.01 | 0.33 | 0.13 | 90 | 1012.1 |
| 20260505111958 | 59 | 172 | 1.7 | 3.5 | 0.01 | 0.33 | 0.13 | 91 | 1012.5 |
| 20260505110959 | 59 | 157 | 0.9 | 2.6 | 0.01 | 0.33 | 0.13 | 91 | 1012.6 |
| 20260505101959 | 58 | 75 | 1.7 | 3.5 | 0.02 | 0.32 | 0.12 | 90 | 1012.5 |
| 20260505100959 | 58 | 124 | 0.0 | 1.7 | 0.02 | 0.32 | 0.12 | 90 | 1013.3 |
| 20260505100001 | 58 | 124 | 1.7 | 4.3 | 0.03 | 0.32 | 0.12 | 90 | 1013.6 |
| 20260505094959 | 58 | 158 | 1.7 | 4.3 | 0.03 | 0.32 | 0.12 | 90 | 1013.6 |
| 20260505094000 | 58 | 131 | 2.6 | 5.2 | 0.04 | 0.32 | 0.12 | 90 | 1013.5 |
| 20260505092959 | 58 | 150 | 3.5 | 7.0 | 0.04 | 0.32 | 0.12 | 90 | 1013.7 |
| 20260505091959 | 58 | 143 | 4.3 | 8.7 | 0.02 | 0.30 | 0.10 | 91 | 1013.9 |
| 20260505090959 | 58 | 140 | 4.3 | 8.7 | 0.03 | 0.30 | 0.10 | 91 | 1014.0 |
| 20260505085959 | 59 | 120 | 4.3 | 8.7 | 0.02 | 0.29 | 0.09 | 91 | 1014.0 |
| 20260505085000 | 59 | 125 | 3.5 | 7.0 | 0.03 | 0.29 | 0.09 | 91 | 1014.2 |
| 20260505084001 | 59 | 111 | 3.5 | 6.1 | 0.03 | 0.28 | 0.08 | 91 | 1014.4 |
| 20260505082958 | 59 | 98 | 2.6 | 7.0 | 0.04 | 0.28 | 0.08 | 91 | 1014.7 |